[[{"header":{"parameterUnit":"m.s-1","parameterCategory":1,"la1":30.2991,"la2":30.254,"lo1":-89.0895,"lo2":-89.0444,"dy":0.0017,"dx":0.0017,"nx":28,"ny":28,"refTime":"2025-04-16T09:00:00:Z","depth":0,"parameterNumber":2,"parameterNumberName":"U-component_of_WINDS"},"data":[0,0,0,0,0,0,0,0,0,0,0,0,0,0,0,0,0,0,0,0,0,0,0,0,0,0,0,0,0,0,0,0,0,0,0,0,0,0,0,0,0,0,0,0,0,0,0,0,0,0,0,0,0,0,0,0,0,0,0.2899,0.29,0,0.2973,0.2974,0.2975,0.302,0.302,0.302,0.302,0.3094,0.3096,0.3098,0,0,0,0,0,0,0,0,0,0,0,0,0,0.2795,0.2797,0.2899,0.29,0.2901,0.2973,0.2974,0.2975,0.302,0.302,0.302,0.3021,0.3094,0.3096,0.3098,0,0,0,0,0,0,0,0,0,0,0,0,0,0.2852,0.2797,0.2899,0.2932,0.2936,0.2973,0.2974,0.2975,0.302,0.302,0.302,0.3021,0.3093,0.3096,0.3098,0.3107,0,0,0.3106,0.3107,0,0,0,0,0,0,0,0,0.2848,0.2855,0.2926,0.293,0.2934,0.2988,0.2964,0.3019,0.302,0.2988,0.302,0.3021,0.3058,0.3064,0.3077,0.3111,0.3114,0.3106,0.3108,0.3109,0.311,0,0,0,0,0,0,0,0.2844,0.2852,0.2929,0.2927,0.2932,0.2943,0.2951,0.2975,0.302,0.2991,0.2994,0.3002,0.3061,0.3074,0.3079,0.3115,0.3106,0.3109,0.311,0.3111,0.3159,0.3159,0,0,0,0,0,0,0.2835,0.2849,0.2926,0.2931,0.2891,0.2944,0.2954,0.297,0.302,0.3028,0.3002,0.3004,0.307,0.3076,0.3082,0.3095,0.3109,0.3112,0.3113,0.3159,0.3159,0.3159,0,0,0,0,0,0,0.2833,0.2842,0.2923,0.2891,0.2902,0.2946,0.2964,0.2971,0.2985,0.3029,0.3037,0.3008,0.307,0.3078,0.31,0.3098,0.3113,0.3115,0.316,0.3159,0.3159,0.3122,0,0,0,0,0,0,0.283,0.2841,0.2845,0.2891,0.2903,0.2941,0.2964,0.2973,0.299,0.2993,0.3036,0.3044,0.3071,0.3096,0.3103,0.3102,0.3117,0.316,0.3159,0.3159,0.3123,0.312,0.3117,0,0,0,0,0,0.2826,0.2832,0.2845,0.2854,0.291,0.2941,0.2948,0.298,0.2989,0.2994,0.3022,0.3042,0.3097,0.3098,0.3106,0.3106,0.316,0.316,0.3159,0.3125,0.3121,0.3117,0,0,0,0,0,0,0.2785,0.2839,0.2854,0.2875,0.2903,0.2949,0.2955,0.2975,0.3001,0.3003,0.3041,0.305,0.3069,0.309,0.309,0.3117,0.3131,0.3132,0.3102,0.3099,0.3096,0.309,0.3119,0,0,0,0,0,0.2778,0.28,0.2845,0.2859,0.2873,0.2911,0.2926,0.2948,0.2979,0.2991,0.302,0.3048,0.3072,0.3087,0.3111,0.3127,0.3136,0.3131,0.3127,0.3125,0.3125,0.3134,0.3131,0.3156,0.3156,0.3156,0,0,0.2765,0.2797,0.2808,0.2852,0.2876,0.2896,0.2921,0.2942,0.2957,0.2994,0.3017,0.3039,0.3073,0.3092,0.3102,0.311,0.312,0.3124,0.3121,0.3123,0.3133,0.313,0.3128,0.3156,0.3156,0.3156,0,0,0.2751,0.2777,0.2792,0.2816,0.2852,0.2878,0.2881,0.2924,0.294,0.2964,0.2991,0.301,0.305,0.3073,0.309,0.3083,0.3102,0.309,0.3074,0.3082,0.308,0.3078,0.3075,0.3073,0.309,0.309,0.309,0,0.2729,0.2762,0.2796,0.2815,0.2833,0.2868,0.2881,0.2903,0.2945,0.2956,0.2965,0.3016,0.3041,0.3065,0.3063,0.3076,0.308,0.3085,0.3077,0.3076,0.3075,0.3072,0.3071,0.3088,0.3088,0.3088,0.3088,0,0.2733,0.2755,0.2762,0.2802,0.2821,0.2837,0.2873,0.2888,0.2908,0.2932,0.2955,0.2987,0.3018,0.3025,0.3045,0.3052,0.3055,0.307,0.3085,0.307,0.3068,0.3067,0.3085,0.3086,0.3086,0.3087,0,0,0.2695,0.2754,0.2756,0.2774,0.2817,0.2834,0.2851,0.2882,0.2893,0.2921,0.2936,0.2969,0.2982,0.3001,0.3024,0.3031,0.3022,0.3045,0.3046,0.3039,0.303,0.3018,0.3016,0.3036,0.3036,0.3036,0.3027,0,0.2686,0.272,0.2751,0.2773,0.2793,0.2825,0.284,0.2868,0.2891,0.291,0.2936,0.2958,0.2975,0.2986,0.2995,0.3022,0.3021,0.3023,0.3049,0.3049,0.3038,0.3016,0.3003,0.2993,0.3027,0.3026,0.3026,0,0.2681,0.2707,0.2731,0.2771,0.2781,0.2794,0.2823,0.2842,0.2873,0.289,0.291,0.2934,0.2953,0.2966,0.2992,0.2992,0.3005,0.3019,0.302,0.3023,0.3036,0.3017,0.2991,0.2989,0.3026,0.3026,0.3026,0,0.2649,0.2691,0.2711,0.2726,0.2773,0.2781,0.2801,0.2833,0.2848,0.2874,0.2885,0.2912,0.2927,0.2947,0.2978,0.2985,0.3,0.3016,0.3013,0.3012,0.3014,0.3013,0.2989,0.3023,0.3023,0.3023,0.3023,0,0.2636,0.2649,0.2697,0.2709,0.2724,0.2759,0.2773,0.2796,0.2823,0.284,0.2869,0.2884,0.2923,0.2942,0.2966,0.2983,0.2989,0.3002,0.3008,0.2999,0.2997,0.3007,0.3008,0.3023,0.3023,0.3023,0.3023,0,0.2604,0.2636,0.266,0.2702,0.2713,0.2722,0.2759,0.2771,0.2795,0.2815,0.2822,0.286,0.2884,0.2916,0.2949,0.2965,0.2979,0.2989,0.2968,0.2971,0.2966,0.2966,0.2947,0.2945,0.2981,0.2981,0.298,0,0.2593,0.2603,0.2647,0.266,0.2679,0.27,0.2716,0.2751,0.2767,0.2802,0.281,0.2836,0.2858,0.2894,0.2924,0.295,0.296,0.2952,0.2964,0.2954,0.2959,0.2957,0.2958,0.2948,0.2948,0.2947,0.2947,0,0.2569,0.2584,0.2607,0.2635,0.2654,0.2678,0.2703,0.2712,0.2751,0.2767,0.2792,0.2809,0.2843,0.2868,0.2897,0.2917,0.2938,0.2943,0.2943,0.2934,0.2921,0.2926,0.2959,0.2943,0.2943,0.2944,0.2944,0.2944,0.2546,0.2557,0.2589,0.2613,0.2636,0.2658,0.2671,0.2697,0.2718,0.2749,0.2768,0.2791,0.2821,0.2863,0.2882,0.29,0.2908,0.2909,0.2909,0.2909,0.2905,0.2918,0.2905,0.2905,0.2906,0.2906,0.2906,0,0.2523,0.2546,0.2567,0.2601,0.262,0.2639,0.2667,0.2681,0.2701,0.2728,0.2749,0.2776,0.28,0.2832,0.2858,0.2867,0.2877,0.2872,0.2871,0.2875,0.2896,0.2893,0.2863,0.2863,0.2863,0.2863,0.2863,0.2863,0.2513,0.2532,0.2551,0.2581,0.2603,0.2626,0.264,0.2661,0.2682,0.2711,0.2731,0.2752,0.2781,0.2809,0.2831,0.284,0.2848,0.284,0.2851,0.287,0.2874,0.2878,0.2874,0.2842,0.2842,0.2829,0.2829,0.2828]},{"header":{"parameterUnit":"m.s-1","parameterCategory":1,"la1":30.2991,"la2":30.254,"lo1":-89.0895,"lo2":-89.0444,"dy":0.0017,"dx":0.0017,"nx":28,"ny":28,"refTime":"2025-04-16T09:00:00:Z","depth":0,"parameterNumber":3,"parameterNumberName":"V-component_of_WINDS"},"data":[0,0,0,0,0,0,0,0,0,0,0,0,0,0,0,0,0,0,0,0,0,0,0,0,0,0,0,0,0,0,0,0,0,0,0,0,0,0,0,0,0,0,0,0,0,0,0,0,0,0,0,0,0,0,0,0,0,0,3.3773,3.3773,0,3.3783,3.3783,3.3783,3.3737,3.3736,3.3734,3.3733,3.3742,3.3744,3.3745,0,0,0,0,0,0,0,0,0,0,0,0,0,3.3713,3.3714,3.3773,3.3773,3.3774,3.3783,3.3783,3.3783,3.3737,3.3736,3.3734,3.3732,3.3742,3.3744,3.3746,0,0,0,0,0,0,0,0,0,0,0,0,0,3.3733,3.3715,3.3773,3.3752,3.375,3.3783,3.3783,3.3783,3.3738,3.3736,3.3734,3.3732,3.3741,3.3744,3.3746,3.38,0,0,3.3753,3.3754,0,0,0,0,0,0,0,0,3.3732,3.3735,3.3755,3.3753,3.3751,3.3757,3.3765,3.3789,3.3738,3.3742,3.3733,3.3731,3.3749,3.375,3.3756,3.38,3.3801,3.3753,3.3754,3.3755,3.3756,0,0,0,0,0,0,0,3.373,3.3734,3.3777,3.3755,3.3753,3.3741,3.3742,3.3769,3.3757,3.3742,3.3738,3.374,3.3747,3.3754,3.3756,3.3801,3.3753,3.3755,3.3756,3.3757,3.3886,3.3888,0,0,0,0,0,0,3.3732,3.3733,3.3777,3.3777,3.3736,3.3744,3.3744,3.3757,3.3756,3.3754,3.3742,3.3738,3.3752,3.3754,3.3757,3.3817,3.3755,3.3757,3.3759,3.3884,3.3887,3.3889,0,0,0,0,0,0,3.3731,3.3736,3.3776,3.3754,3.3759,3.3747,3.3761,3.3758,3.3765,3.3756,3.3754,3.3751,3.375,3.3753,3.3789,3.3817,3.3758,3.376,3.3882,3.3885,3.3888,3.394,0,0,0,0,0,0,3.3729,3.3736,3.3757,3.3755,3.376,3.3809,3.3763,3.376,3.3769,3.3764,3.3765,3.3763,3.3749,3.3786,3.3791,3.3819,3.3762,3.3879,3.3883,3.3887,3.3936,3.3945,3.3952,0,0,0,0,0,3.3727,3.3772,3.3759,3.3764,3.3786,3.3811,3.3813,3.3797,3.3772,3.3792,3.3786,3.3763,3.3814,3.379,3.3795,3.3824,3.3877,3.3882,3.3886,3.3932,3.3943,3.3952,0,0,0,0,0,0,3.3778,3.3772,3.3756,3.3802,3.3807,3.3803,3.3828,3.3809,3.3821,3.3816,3.3795,3.3795,3.3833,3.3833,3.3806,3.3875,3.3841,3.3847,3.3874,3.3884,3.3892,3.389,3.3764,0,0,0,0,0,3.3795,3.3816,3.3809,3.385,3.3853,3.384,3.3851,3.3837,3.3842,3.3843,3.384,3.3845,3.3862,3.3873,3.3888,3.3936,3.3934,3.3959,3.3967,3.3974,3.3979,3.4001,3.4011,3.3904,3.3904,3.3904,0,0,3.3829,3.3828,3.3843,3.386,3.3862,3.3883,3.3843,3.3868,3.3882,3.3847,3.3879,3.3877,3.3881,3.3922,3.394,3.3923,3.4008,3.398,3.3986,3.3986,3.4007,3.4017,3.4026,3.3907,3.3907,3.3906,0,0,3.3901,3.3904,3.3937,3.394,3.3944,3.3935,3.3943,3.3941,3.3938,3.397,3.3943,3.3961,3.3991,3.3994,3.4,3.4072,3.405,3.4077,3.412,3.4142,3.415,3.4157,3.418,3.4189,3.4083,3.4083,3.4083,0,3.3943,3.3975,3.3956,3.3982,3.3989,3.3958,3.399,3.3994,3.4003,3.4008,3.3989,3.4024,3.4025,3.4065,3.4082,3.4089,3.4096,3.4076,3.4151,3.4158,3.4164,3.4186,3.4195,3.4086,3.4086,3.4085,3.4085,0,3.4024,3.4046,3.4072,3.408,3.4091,3.412,3.4105,3.4118,3.4103,3.4096,3.4128,3.4128,3.4141,3.415,3.4137,3.4187,3.4176,3.4154,3.4119,3.4178,3.4197,3.4206,3.409,3.4089,3.4088,3.4088,0,0,3.4129,3.4125,3.4135,3.4137,3.4138,3.4154,3.4182,3.4194,3.4204,3.4212,3.4232,3.4257,3.4236,3.4243,3.4229,3.4249,3.4303,3.4224,3.4224,3.4236,3.4356,3.437,3.438,3.4289,3.4291,3.4292,3.4354,0,3.4197,3.4243,3.4226,3.4272,3.429,3.4261,3.4284,3.4287,3.428,3.4295,3.4288,3.4305,3.4278,3.4281,3.4299,3.4292,3.4326,3.4288,3.4306,3.4307,3.4303,3.4391,3.4407,3.4466,3.4362,3.4364,3.4365,0,3.4284,3.4292,3.434,3.4336,3.4343,3.4364,3.4372,3.4387,3.4389,3.4383,3.439,3.4372,3.4396,3.4363,3.4396,3.437,3.4377,3.4375,3.4376,3.4375,3.4338,3.439,3.4484,3.4492,3.4377,3.4376,3.4375,0,3.4351,3.4376,3.4406,3.4409,3.4406,3.4421,3.442,3.442,3.4428,3.4436,3.4441,3.4452,3.4458,3.4466,3.4451,3.4429,3.4485,3.4451,3.4479,3.4479,3.449,3.4489,3.4585,3.45,3.4499,3.4499,3.4499,0,3.4428,3.4457,3.4436,3.4455,3.4486,3.4467,3.4498,3.4495,3.4495,3.4511,3.4487,3.4503,3.4483,3.4497,3.4486,3.4513,3.4517,3.4511,3.4507,3.4512,3.4512,3.4514,3.4509,3.4502,3.4501,3.4501,3.45,0,3.4508,3.4495,3.4526,3.452,3.4519,3.4542,3.4536,3.4553,3.4545,3.4566,3.457,3.4557,3.4572,3.4558,3.4573,3.4565,3.4601,3.4592,3.4599,3.4596,3.4624,3.462,3.4722,3.4733,3.4643,3.4644,3.4645,0,3.4556,3.4578,3.4574,3.4583,3.4583,3.4598,3.4606,3.4588,3.4596,3.4599,3.4615,3.4627,3.4636,3.4661,3.4653,3.4664,3.4654,3.4689,3.4655,3.4658,3.4651,3.4649,3.4649,3.4694,3.4696,3.4696,3.4697,0,3.4643,3.4635,3.4646,3.4655,3.4664,3.4671,3.4675,3.4684,3.4665,3.4675,3.469,3.4697,3.4711,3.4723,3.4731,3.473,3.471,3.4708,3.4714,3.4718,3.472,3.4716,3.4615,3.4705,3.4704,3.4704,3.4703,3.4703,3.4707,3.4723,3.4722,3.4735,3.4736,3.474,3.4754,3.4747,3.4759,3.4768,3.4757,3.4774,3.4774,3.4782,3.4783,3.4796,3.4781,3.4791,3.4793,3.4796,3.4798,3.472,3.4798,3.4797,3.4797,3.4797,3.4797,0,3.4789,3.4787,3.4799,3.4804,3.4814,3.4795,3.4798,3.4807,3.4823,3.4824,3.4833,3.4848,3.486,3.4852,3.4862,3.4873,3.4864,3.4876,3.4874,3.4873,3.4812,3.4804,3.4883,3.4883,3.4883,3.4883,3.4883,3.4883,3.4833,3.4859,3.4851,3.4877,3.4874,3.489,3.4893,3.4896,3.4897,3.4915,3.4924,3.4919,3.4916,3.4925,3.4934,3.4932,3.4935,3.495,3.4944,3.4886,3.4878,3.487,3.4862,3.4951,3.4951,3.5003,3.5003,3.5004]}]]